Regional Weather Roundup
Issued by NWS Kansas City/Pleasant Hill, MO

Home | Current Version | Previous Version | Text Only | Print | Product List | Glossary On
Versions: 1 2 3 4 5 6 7 8 9 10 11 12 13 14 15 16 17 18 19 20 21 22 23 24 25 26 27 28
000
ASUS43 KEAX 240010
RWREAX

WEATHER ROUNDUP FOR EASTERN KANSAS AND NORTHWEST MISSOURI
NATIONAL WEATHER SERVICE KANSAS CITY/PLEASANT HILL MO
600 PM CST THU FEB 23 2017

KSZ040-057-103>105-MOZ028-029-037-043-240100-
...KANSAS CITY METROPOLITAN AREA...

CITY           SKY/WX    TMP DP  RH WIND       PRES   REMARKS
K.C. INTL      PTCLDY    52  45  77 NE15      29.43F
6HR MIN TEMP:  50; 6HR MAX TEMP:  56;

K.C. DOWNTOWN  CLOUDY    55  45  68 NE14      29.42S
6HR MIN TEMP:  51; 6HR MAX TEMP:  57;

LEES SUMMIT    CLOUDY    54  46  74 N15       29.42R
6HR MIN TEMP:  52; 6HR MAX TEMP:  58;

OLATHE - IXD   CLOUDY    57  47  69 NE9       29.41R
6HR MIN TEMP:  53; 6HR MAX TEMP:  60;

OLATHE - OJC   CLOUDY    56  48  74 NE14      29.40S
6HR MIN TEMP:  51; 6HR MAX TEMP:  58;

LAWRENCE       CLOUDY    55  46  71 NE10      29.41S

$$

MOZ001>008-011>017-020>025-030>033-038>040-044>046-053-054-240100-
...NORTHERN AND CENTRAL MISSOURI...

CITY           SKY/WX    TMP DP  RH WIND       PRES   REMARKS
ST. JOSEPH     MOCLDY    49  44  83 NE16      29.47S
6HR MIN TEMP:  47; 6HR MAX TEMP:  57;

MOSBY            N/A     52  45  76 NE7       29.45
WARRENSBURG    CLOUDY    64  52  63 E13       29.37F
WHITEMAN AFB   PTCLDY    65  58  77 SE10      29.38F
6HR MIN TEMP:  59; 6HR MAX TEMP:  68;

CLINTON        CLOUDY    64  55  72 E6        29.40F
SEDALIA        CLOUDY    65  55  70 E12       29.42F
6HR MIN TEMP:  62; 6HR MAX TEMP:  70;

WARSAW         NOT AVBL
CHILLICOTHE      N/A     51  46  83 NE10      29.51R
6HR MIN TEMP:  46; 6HR MAX TEMP:  52;

KIRKSVILLE     CLOUDY    49  47  93 E12       29.51S
6HR MIN TEMP:  45; 6HR MAX TEMP:  50; 6HR PCP: TRACE;


$$

MOZ041-047>049-056>058-063>065-088>090-097-240100-
...EASTERN AND SOUTHERN MISSOURI...

CITY           SKY/WX    TMP DP  RH WIND       PRES   REMARKS
ST. LOUIS INTL MOCLDY    66  55  67 SE12      29.56S
6HR MIN TEMP:  66; 6HR MAX TEMP:  72;

SPIRIT OF STL  PTCLDY    66  56  70 SE7       29.53F
COLUMBIA       MOCLDY    66  55  67 E10       29.46F
JEFFERSON CITY PTCLDY    68  54  60 E15       29.45F
ROLLA          CLEAR     69  54  58 S21       29.48F
OSAGE BEACH    CLEAR     74  52  46 S8        29.45S
SPRINGFIELD    PTCLDY    74  49  41 S15       29.43S
BRANSON        MOCLDY    73  48  40 S18G25    29.50S
JOPLIN         CLOUDY    78  46  32 S17       29.38S
WEST PLAINS    PTCLDY    69  55  60 S12       29.56R

$$

IAZ060-094-KSZ022-034>040-054-083-096-NEZ052-066-093-240100-
...KANSAS...SOUTHEAST NEBRASKA AND IOWA...

CITY           SKY/WX    TMP DP  RH WIND       PRES   REMARKS
TOPEKA         CLEAR     58  48  69 NE12      29.41R
6HR MIN TEMP:  55; 6HR MAX TEMP:  63;

MANHATTAN      CLEAR     49  41  74 NE17      29.41F
EMPORIA        CLEAR     66  50  56 E9        29.34F
CHANUTE        CLOUDY    75  48  38 S12       29.34S
WICHITA        PTCLDY    70  50  49 SE9       29.28F
OMAHA          TSTM      38  33  82 NE17      29.61R WCI  28
LINCOLN        LGT RAIN  38  36  92 NE16      29.59S FOG     WCI  29
FALLS CITY     CLOUDY    50  41  71 NE12      29.48R
LAMONI         CLOUDY    48  41  76 NE13      29.54F
DES MOINES     LGT RAIN  44  39  82 NE8G21    29.67R

$$





USA.gov is the U.S. government's official web portal to all federal, state and local government web resources and services.